Regional Weather Roundup
Issued by NWS

Home | Current Version | Previous Version | Graphics & Text | Print | Product List | Glossary Off
Versions: 1 2 3 4 5 6 7 8 9 10 11 12 13 14 15 16 17 18 19 20 21 22 23 24 25 26 27 28 29 30 31 32 33 34 35 36 37 38 39 40 41 42 43 44 45 46 47 48 49 50

000
ASUS43 KTOP 182059
RWRKS

WEATHER ROUNDUP FOR KANSAS
NATIONAL WEATHER SERVICE GOODLAND KS
400 PM CDT THU SEP 18 2014

NOTE:  "FAIR" INDICATES FEW OR NO CLOUDS BELOW 12,000 FEET WITH NO
SIGNIFICANT WEATHER AND/OR OBSTRUCTIONS TO VISIBILITY.

KSZ001>006-013>018-027>032-041>047-182200-
NORTHWEST KANSAS

CITY           SKY/WX    TMP DP  RH WIND       PRES   REMARKS
GOODLAND       SUNNY     83  60  45 S10       29.94F
HAYS           SUNNY     88  64  45 S22G28    29.87F
HILL CITY      SUNNY     74  65  73 W3        29.91F
RUSSELL        SUNNY     84  63  49 S21G26    29.88F
$$

KSZ061>065-074>080-084>089-182200-
SOUTHWEST KANSAS

CITY           SKY/WX    TMP DP  RH WIND       PRES   REMARKS
DODGE CITY     SUNNY     88  61  40 S18G30    29.92F
ELKHART          N/A     85  59  41 S16         N/A
GARDEN CITY    SUNNY     89  54  30 S16G28    29.91F
GREAT BEND     SUNNY     88  59  37 S22G30    29.89F
LIBERAL        MOSUNNY   90  57  33 SE15G23   29.94F
$$

KSZ066>073-081>083-090>101-182200-
SOUTHEAST KANSAS

CITY           SKY/WX    TMP DP  RH WIND       PRES   REMARKS
CHANUTE        PTSUNNY   75  65  70 E3        29.95S
COFFEYVILLE    PTSUNNY   72  65  78 NE6       29.94R
HUTCHINSON     SUNNY     89  55  31 S22       29.91F
NEWTON         PTSUNNY   84  57  39 S13       29.95F
PARSONS        PTSUNNY   74  66  76 VRB6      29.96R
WICHITA INTL   MOSUNNY   89  55  31 S16       29.91F
WICHITA JABRA  SUNNY     87  56  34 SE12      29.92F
WINFIELD       SUNNY     86  59  39 CALM      29.92F
$$

KSZ007>012-019>026-033>040-048>060-102>105-182200-
NORTHEAST KANSAS

CITY           SKY/WX    TMP DP  RH WIND       PRES   REMARKS
CONCORDIA      SUNNY     80  65  59 S13       29.93F
EMPORIA        MOSUNNY   76  66  71 NE13      29.94F
LAWRENCE       CLOUDY    68  62  81 E7        29.99F HAZE
MANHATTAN      SUNNY     80  66  62 N5        29.94F
OLATHE IND     CLOUDY    70  63  78 E8        29.99F
OLATHE EXE     CLOUDY    66  62  87 E12       29.99S
SALINA         SUNNY     84  62  47 S17G23    29.92F
TOPEKA BILLARD CLOUDY    72  65  78 NE8       29.98F
TOPEKA FORBES  CLOUDY    72  63  73 NE8       29.97F
$$


USA.gov is the U.S. government's official web portal to all federal, state and local government web resources and services.